CW5039 Weather Reports


time (UTC)temp
C
wind
direction
speed
KPH
gust
KPH
rain 1hr
cm
rain 24hr
cm
rain mn
cm
humidity
%
barometer
mb
20260509234904 17 238 27.4 33.8 0.00 0.48 0.05 81 1003.1
20260509234404 17 254 27.4 37.0 0.00 0.48 0.05 82 1003.3
20260509231904 17 249 29.0 38.6 0.00 0.48 0.05 78 1003.2
20260509231407 17 240 22.5 41.8 0.00 0.51 0.05 79 1003.3
20260509230905 17 248 22.5 29.0 0.03 0.76 0.05 79 1003.3
20260509225404 16 267 27.4 33.8 0.03 0.76 0.05 80 1003.6
20260509222406 16 245 19.3 20.9 0.03 0.76 0.05 88 1003.5
20260509221404 15 226 25.7 41.8 0.03 0.76 0.05 86 1003.6
20260509220904 16 237 25.7 37.0 0.00 0.74 0.03 80 1003.6
20260509220404 16 249 19.3 25.7 0.00 0.74 0.03 82 1003.5
20260509215904 16 256 19.3 32.2 0.00 0.74 0.03 82 1003.5
20260509215405 16 259 20.9 27.4 0.00 0.74 0.03 81 1003.5
20260509214404 16 258 14.5 24.1 0.00 0.74 0.03 82 1003.5
20260509213404 16 246 17.7 25.7 0.00 0.74 0.03 84 1003.5
20260509212904 16 258 14.5 22.5 0.00 0.74 0.03 85 1003.4
20260509212404 16 246 17.7 24.1 0.00 0.74 0.03 85 1003.4
20260509211905 16 245 20.9 24.1 0.00 0.74 0.03 86 1003.4
20260509210404 15 262 16.1 25.7 0.00 0.74 0.03 89 1003.3
20260509205904 15 256 12.9 20.9 0.00 0.74 0.03 90 1003.3
20260509205404 15 266 17.7 22.5 0.00 0.74 0.03 91 1003.2
20260509204905 14 280 11.3 16.1 0.00 0.76 0.03 92 1003.1
20260509204404 14 274 12.9 16.1 0.00 0.76 0.03 92 1003.1
20260509203405 13 277 6.4 11.3 0.00 0.79 0.03 93 1003.1
20260509202905 13 284 9.7 11.3 0.00 0.79 0.03 93 1003.1
20260509202404 13 288 8.0 9.7 0.00 0.79 0.03 93 1003.1
20260509201905 13 295 4.8 9.7 0.00 0.79 0.03 93 1003.1
20260509201404 13 266 8.0 11.3 0.00 0.79 0.03 93 1003.0
20260509200904 13 249 9.7 11.3 0.00 0.79 0.03 94 1003.0
20260509195904 13 245 9.7 12.9 0.00 0.79 0.03 95 1002.9
20260509194903 12 255 16.1 19.3 0.00 0.79 0.03 95 1002.9
20260509194404 11 257 11.3 24.1 0.00 0.79 0.03 95 1003.0
20260509191904 10 296 8.0 9.7 0.00 0.79 0.03 95 1002.5
20260509190904 10 283 6.4 8.0 0.00 0.79 0.03 95 1002.5
20260509190404 10 273 4.8 9.7 0.00 0.79 0.03 95 1002.5
20260509185406 11 265 8.0 9.7 0.00 0.79 0.03 95 1002.6
20260509184405 10 268 3.2 4.8 0.00 0.79 0.03 95 1002.6
20260509183905 10 273 3.2 4.8 0.00 0.79 0.03 95 1002.5
20260509183406 10 266 4.8 4.8 0.00 0.79 0.03 95 1002.5
20260509182906 11 264 3.2 4.8 0.00 0.79 0.03 95 1002.5
20260509182406 11 262 4.8 8.0 0.03 0.79 0.03 95 1002.5
20260509181406 10 249 4.8 8.0 0.03 0.79 0.03 95 1002.4
20260509180905 10 269 4.8 9.7 0.03 0.79 0.03 95 1002.4
20260509175907 11 261 3.2 8.0 0.03 0.79 0.03 95 1002.5
20260509175405 10 259 6.4 9.7 0.03 0.79 0.03 95 1002.5
20260509174906 10 268 8.0 14.5 0.03 0.79 0.03 95 1002.5
20260509174405 10 247 9.7 14.5 0.03 0.79 0.03 95 1002.4
20260509172405 8 286 6.4 19.3 0.00 0.76 0.00 95 1002.5
20260509171406 9 319 3.2 4.8 0.00 0.76 0.00 95 1002.3
20260509165906 9 302 4.8 8.0 0.00 0.76 0.00 95 1002.3
20260509165405 8 294 4.8 4.8 0.00 0.76 0.00 95 1002.2
20260509164905 9 294 4.8 4.8 0.00 0.76 0.00 95 1002.1
20260509164405 9 291 3.2 4.8 0.00 0.76 0.00 95 1002.1
20260509163405 8 276 3.2 4.8 0.00 0.76 0.00 95 1002.0
20260509162405 9 277 4.8 8.0 0.00 0.76 0.00 95 1002.1
20260509161905 8 279 4.8 8.0 0.00 0.76 0.00 94 1002.1
20260509160405 9 305 3.2 3.2 0.00 0.76 0.00 94 1002.1
20260509154905 10 306 1.6 4.8 0.00 0.76 0.00 94 1002.1
20260509154406 10 306 3.2 4.8 0.00 0.76 0.00 95 1002.1
20260509153405 10 286 1.6 3.2 0.00 0.76 0.00 95 1002.3
20260509152905 10 286 0.0 0.0 0.00 0.76 0.00 95 1002.4
20260509152405 10 286 0.0 3.2 0.00 0.76 0.00 95 1002.4
20260509151905 10 286 1.6 4.8 0.00 0.76 0.00 95 1002.4
20260509151405 10 287 3.2 4.8 0.00 0.76 0.00 94 1002.4
20260509150906 10 296 4.8 4.8 0.00 0.76 0.00 94 1002.5
20260509150405 10 292 6.4 8.0 0.00 0.76 0.00 95 1002.5
20260509145905 10 289 8.0 9.7 0.00 0.76 0.00 95 1002.5
20260509144905 10 281 4.8 8.0 0.00 0.76 0.00 94 1002.6
20260509142905 10 286 3.2 4.8 0.00 0.76 0.00 94 1002.7
20260509142405 10 282 3.2 4.8 0.00 0.76 0.00 94 1002.8
20260509141905 10 280 3.2 4.8 0.00 0.76 0.00 94 1002.7
20260509141405 10 279 3.2 4.8 0.00 0.76 0.00 94 1002.8
20260509140905 10 279 3.2 4.8 0.00 0.76 0.00 94 1002.8
20260509140405 10 279 3.2 3.2 0.00 0.76 0.00 94 1002.8
20260509135905 10 279 1.6 3.2 0.00 0.76 0.00 94 1002.9
20260509134905 10 279 1.6 3.2 0.00 0.79 0.00 94 1002.8
20260509134406 10 279 3.2 3.2 0.00 0.84 0.00 94 1002.9
20260509132906 11 280 3.2 4.8 0.00 0.86 0.00 94 1002.9
20260509132405 11 279 3.2 4.8 0.00 0.86 0.00 94 1002.9
20260509131905 11 278 3.2 4.8 0.00 0.86 0.00 94 1002.9
20260509125405 12 280 4.8 4.8 0.00 0.89 0.00 94 1002.8
20260509124905 12 280 4.8 4.8 0.00 0.89 0.00 94 1002.9
20260509121905 13 286 3.2 4.8 0.05 0.89 0.00 94 1002.9
20260509121405 13 286 1.6 3.2 0.05 0.94 0.00 94 1003.0
20260509114905 13 290 4.8 9.7 0.08 1.32 1.24 94 1003.4
20260509113906 13 297 9.7 11.3 0.10 1.55 1.24 94 1003.5
20260509113405 13 286 8.0 9.7 0.20 1.60 1.24 94 1003.4
20260509111405 13 293 9.7 14.5 0.18 1.55 1.19 94 1003.2
20260509110905 13 288 9.7 14.5 0.18 1.55 1.19 94 1003.1
20260509110405 13 279 9.7 11.3 0.18 1.55 1.19 94 1003.0
20260509105905 13 284 8.0 11.3 0.18 1.57 1.19 94 1003.0
20260509105405 13 288 8.0 8.0 0.15 1.57 1.17 94 1003.1
20260509104905 13 284 4.8 4.8 0.15 1.60 1.17 94 1003.2
20260509103906 13 329 4.8 4.8 0.13 1.57 1.14 94 1003.0
20260509102405 13 345 4.8 8.0 0.00 1.45 1.02 94 1003.1
20260509101405 13 337 3.2 4.8 0.00 1.45 1.02 94 1003.3
20260509100905 13 337 3.2 4.8 0.00 1.45 1.02 94 1003.3
20260509095905 13 336 3.2 4.8 0.00 1.52 1.02 94 1003.2
20260509095404 13 336 3.2 4.8 0.00 1.55 1.02 94 1003.2
20260509094905 13 328 3.2 4.8 0.00 1.55 1.02 94 1003.0
20260509093405 13 306 12.9 19.3 0.00 1.63 1.02 94 1003.2
20260509092905 13 307 14.5 19.3 0.00 1.65 1.02 94 1003.3
20260509092405 13 307 14.5 19.3 0.00 1.68 1.02 94 1003.2
20260509090904 13 304 12.9 16.1 0.00 1.68 1.02 94 1003.0
20260509090405 13 316 12.9 19.3 0.00 1.68 1.02 94 1003.0
20260509084905 14 308 9.7 19.3 0.00 1.70 1.02 93 1002.9
20260509084405 14 326 16.1 19.3 0.03 1.70 1.02 93 1002.9
20260509083405 14 323 14.5 19.3 0.03 1.70 1.02 93 1002.9
20260509082904 14 321 12.9 16.1 0.05 1.70 1.02 93 1002.9
20260509082405 14 326 11.3 12.9 0.05 1.70 1.02 93 1002.9
20260509081905 14 331 8.0 9.7 0.05 1.70 1.02 93 1002.8
20260509081405 14 330 8.0 9.7 0.05 1.70 1.02 93 1002.7
20260509080404 14 318 8.0 9.7 0.08 1.70 1.02 93 1002.9
20260509074405 14 331 8.0 11.3 0.08 1.68 0.99 93 1003.0
20260509072905 15 333 8.0 11.3 0.10 1.65 0.99 92 1003.0
20260509072405 15 315 9.7 12.9 0.15 1.65 0.99 92 1003.1
20260509070905 15 321 9.7 14.5 0.13 1.63 0.94 92 1003.1
20260509070405 15 315 8.0 9.7 0.13 1.63 0.94 92 1002.9
20260509065905 15 310 9.7 9.7 0.13 1.63 0.94 92 1002.9
20260509064905 15 314 8.0 9.7 0.13 1.63 0.94 92 1002.9
20260509063905 15 315 11.3 14.5 0.10 1.60 0.91 92 1002.9
20260509063405 15 305 8.0 12.9 0.10 1.60 0.91 91 1002.9
20260509062905 15 291 9.7 14.5 0.05 1.55 0.89 91 1002.9
20260509061905 15 283 8.0 11.3 0.00 1.50 0.81 90 1002.9
20260509061405 15 304 4.8 8.0 0.00 1.50 0.81 90 1002.7
20260509060905 15 317 6.4 8.0 0.00 1.50 0.81 89 1002.7
20260509055905 15 324 8.0 9.7 0.00 1.50 0.81 89 1002.6
20260509055405 15 333 8.0 9.7 0.00 1.50 0.81 88 1002.5
20260509054905 15 328 8.0 11.3 0.00 1.50 0.81 88 1002.5
20260509054404 15 333 9.7 11.3 0.00 1.50 0.81 87 1002.4
20260509053905 15 326 6.4 8.0 0.00 1.50 0.81 87 1002.4
20260509053405 15 323 8.0 8.0 0.03 1.50 0.81 86 1002.5
20260509052905 15 315 8.0 9.7 0.03 1.50 0.81 86 1002.6
20260509051905 15 315 4.8 4.8 0.03 1.50 0.81 85 1002.4
20260509050404 16 280 4.8 11.3 0.03 1.50 0.81 84 1002.5
20260509045905 16 296 8.0 16.1 0.03 1.50 0.81 84 1002.6
20260509045405 16 294 12.9 19.3 0.03 1.50 0.81 83 1002.6
20260509044904 16 300 16.1 20.9 0.03 1.50 0.81 83 1002.6
20260509044405 16 287 16.1 20.9 0.03 1.50 0.81 81 1002.8
20260509042905 17 284 19.3 27.4 0.00 1.47 0.79 82 1003.1
20260509042405 17 274 11.3 14.5 0.00 1.47 0.79 82 1003.0
20260509041904 17 279 11.3 19.3 0.00 1.47 0.79 81 1003.0
20260509035906 17 280 19.3 27.4 0.00 1.47 0.79 79 1003.2
20260509033905 18 289 19.3 27.4 0.00 1.47 0.79 76 1002.9
20260509032405 19 264 16.1 24.1 0.00 1.47 0.79 72 1002.9
20260509031905 19 276 14.5 20.9 0.00 1.47 0.79 74 1003.0
20260509031404 18 273 19.3 24.1 0.00 1.47 0.79 74 1003.0
20260509025404 18 279 22.5 32.2 0.00 1.47 0.79 72 1003.0
20260509024905 19 287 29.0 33.8 0.00 1.47 0.79 74 1003.0
20260509024405 19 288 22.5 33.8 0.00 1.47 0.79 74 1003.0
20260509023405 18 288 22.5 32.2 0.00 1.47 0.79 75 1003.0
20260509022905 18 293 27.4 32.2 0.00 1.47 0.79 73 1002.9
20260509021404 19 272 19.3 27.4 0.00 1.47 0.79 75 1002.9
20260509020405 20 285 19.3 24.1 0.00 1.47 0.79 75 1003.1
20260509015405 20 279 19.3 25.7 0.00 1.47 0.79 76 1003.1
20260509014905 20 299 17.7 25.7 0.00 1.47 0.79 76 1003.0
20260509014405 20 288 25.7 32.2 0.00 1.47 0.79 75 1003.0
20260509013905 20 289 25.7 32.2 0.00 1.47 0.79 75 1003.0
20260509013405 20 300 20.9 29.0 0.00 1.47 0.79 75 1003.0
20260509012405 19 291 20.9 32.2 0.00 1.47 0.79 77 1003.2
20260509010905 18 280 24.1 32.2 0.00 1.47 0.79 76 1003.4
20260509010405 18 293 29.0 33.8 0.00 1.47 0.79 77 1003.5
20260509004405 18 293 16.1 24.1 0.00 1.47 0.79 79 1003.8
20260509003405 19 291 22.5 32.2 0.00 1.47 0.79 77 1004.0
20260509002904 19 300 22.5 37.0 0.00 1.47 0.79 77 1004.1
20260509001405 19 288 29.0 38.6 0.03 1.47 0.79 79 1004.5